User: anonymous   Login
Location: Gugi
(45.4667°N, 11.1000°E)
Time: 12:11:11
(UTC+00:00)
Language:

CZ-4 R/B - Orbit

View from above orbital plane
View from above orbital plane
View from above satellite
View from above satellite

Ground track
Ground track

The orbit data is extracted from the following two-line orbital elements,

1 29507U 06046C   20020.65332564  .00000096  00000-0  12516-4 0  9991
2 29507  97.7461  42.9816 0047179 308.8445  50.8572 15.00469911723105
Epoch (UTC): 20 January 2020 15:40:47
Eccentricity: 0.0047179
inclination: 97.7461°
perigee height: 532 km
apogee height: 598 km
right ascension of ascending node: 42.9816°
argument of perigee: 308.8445°
revolutions per day: 15.00469911
mean anomaly at epoch: 50.8572°
orbit number at epoch: 72310

The dashed part of the orbit path shows where the satellite is in the earth's shadow,  

DLR